Location: Unnamed Road
(35.9029°N, 51.9749°E)
Time: 10:20:00
(UTC+04:30)

Courier 1B Rocket - All Passes

Search period start: 06 June 2020 00:00
Search period end: 16 June 2020 00:00
Orbit: 920 x 1202 km, 28.2° (Epoch: 05 June)

Date Brightness Start Highest point End Pass type
(mag) Time Alt. Az. Time Alt. Az. Time Alt. Az.
06 Jun - 03:40:22 10° SSE 03:41:38 10° SSE 03:42:54 10° SE visible
06 Jun - 05:28:13 10° SW 05:34:31 28° SSE 05:40:34 10° ESE daylight
06 Jun - 07:20:35 10° WSW 07:27:39 44° S 07:34:18 10° ESE daylight
06 Jun - 09:14:02 10° WSW 09:20:50 43° S 09:27:10 10° ESE daylight
06 Jun - 11:08:14 10° WSW 11:13:42 25° SSW 11:18:54 10° SSE daylight
07 Jun - 04:27:50 10° SSW 04:33:29 22° SSE 04:39:00 10° ESE visible
07 Jun - 06:19:30 10° SW 06:26:34 40° SSE 06:33:16 10° ESE daylight
07 Jun - 08:12:44 10° WSW 08:19:49 46° S 08:26:25 10° ESE daylight
07 Jun - 10:06:39 10° WSW 10:12:51 32° SSW 10:18:41 10° SE daylight
07 Jun - 12:02:31 10° SW 12:05:26 13° SSW 12:08:17 10° S daylight
08 Jun - 03:28:01 10° S 03:32:30 16° SSE 03:36:56 10° ESE visible
08 Jun - 05:18:36 10° SW 05:25:28 35° SSE 05:32:06 10° ESE daylight
08 Jun - 07:11:28 10° WSW 07:18:43 47° S 07:25:33 10° ESE daylight
08 Jun - 09:05:10 10° WSW 09:11:55 39° SSW 09:18:12 10° SE daylight
08 Jun - 10:59:56 10° WSW 11:04:40 19° SSW 11:09:13 10° SSE daylight
09 Jun - 02:29:42 10° SSE 02:31:32 11° SSE 02:33:23 10° SE visible
09 Jun - 04:17:55 10° SW 04:24:24 29° SSE 04:30:45 10° ESE visible
09 Jun - 06:10:18 10° WSW 06:17:36 45° S 06:24:34 10° ESE daylight
09 Jun - 08:03:47 10° WSW 08:10:53 44° S 08:17:33 10° ESE daylight
09 Jun - 09:58:02 10° WSW 10:03:51 26° SSW 10:09:20 10° SSE daylight
10 Jun - 03:17:36 10° SSW 03:23:21 23° SSE 03:29:06 10° ESE visible
10 Jun - 05:09:15 10° SW 05:16:27 41° SSE 05:23:28 10° ESE visible
10 Jun - 07:02:27 10° WSW 07:09:47 47° S 07:16:44 10° ESE daylight
10 Jun - 08:56:24 10° WSW 09:02:55 33° SSW 09:09:05 10° SE daylight
10 Jun - 10:52:15 10° WSW 10:55:35 14° SSW 10:58:49 10° S daylight
11 Jun - 02:17:50 10° S 02:22:22 17° SSE 02:26:57 10° ESE visible
11 Jun - 04:08:23 10° SW 04:15:20 36° SSE 04:22:12 10° E visible
11 Jun - 06:01:13 10° WSW 06:08:38 48° S 06:15:46 10° ESE daylight
11 Jun - 07:54:54 10° W 08:01:55 40° SSW 08:08:33 10° SE daylight
11 Jun - 09:49:41 10° WSW 09:54:46 20° SSW 09:59:38 10° SSE daylight
12 Jun - 01:19:33 10° SSE 01:21:26 11° SSE 01:23:21 10° SE visible
12 Jun - 03:07:46 10° SW 03:14:14 29° SSE 03:20:44 10° ESE visible
12 Jun - 05:00:04 10° WSW 05:07:27 46° S 05:14:41 10° ESE visible
12 Jun - 06:53:31 10° WSW 07:00:49 45° S 07:07:48 10° ESE daylight
12 Jun - 08:47:45 10° WSW 08:53:52 27° SSW 08:59:42 10° SSE daylight
13 Jun - 02:07:31 10° SSW 02:13:13 23° SSE 02:19:00 10° ESE visible
13 Jun - 03:59:05 10° SW 04:06:18 42° SSE 04:13:29 10° E visible
13 Jun - 05:52:13 10° WSW 05:59:40 48° S 06:06:53 10° ESE daylight
13 Jun - 07:46:07 10° W 07:52:53 34° SSW 07:59:22 10° SE daylight
13 Jun - 09:41:54 10° WSW 09:45:38 15° SSW 09:49:16 10° S daylight
14 Jun - 01:07:50 10° S 01:12:16 17° SSE 01:16:46 10° ESE visible
14 Jun - 02:58:18 10° SW 03:05:10 36° SSE 03:12:08 10° E visible
14 Jun - 04:51:02 10° WSW 04:58:28 49° S 05:05:50 10° ESE visible
14 Jun - 06:44:39 10° W 06:51:49 40° SSW 06:58:44 10° SE daylight
14 Jun - 08:39:23 10° WSW 08:44:46 21° SSW 08:49:57 10° SSE daylight
15 Jun - 00:09:49 10° SSE 00:11:22 11° SSE 00:12:56 10° SE night (unlit)
15 Jun - 01:57:46 10° SW 02:04:05 29° SSE 02:10:36 10° ESE visible
15 Jun - 03:49:57 10° WSW 03:57:17 46° S 04:04:39 10° ESE visible
15 Jun - 05:43:18 10° WSW 05:50:40 45° S 05:57:54 10° ESE daylight
15 Jun - 07:37:29 10° WSW 07:43:49 28° SSW 07:49:55 10° SSE daylight
